This demonstration page uses our WeatherBlox Daily Observations layout. Learn more.

Left ArrowRight Arrow

38.83388, -104.82136

Hourly Observations for November 26, 2019

Temp ( °F °C ) Dew Point ( °F °C ) Humidity (%) Winds ( mph kmh ) Pressure ( in mb ) Visibility ( mi km ) Precip ( " mm )
12:23 am 00:23 Mostly Cloudy with Heavy Snow 23 -5 21 -6 93 93 Calm 29.16 988 0 0 0.00 0.00
12:33 am 00:33 Cloudy with Heavy Snow 23 -5 21 -6 93 93 Calm 29.15 987 3 5 0.00 0.00
12:53 am 00:53 Cloudy with Snow 23 -5 21 -6 93 93 Calm 29.13 987 1 1 0.00 0.00
12:58 am 00:58 Cloudy with Snow 23 -4.9 21 -6.3 90 90 Calm 29.14 987 1 1 0.02 0.51
1:23 am 01:23 Cloudy with Light Snow 23 -5 21 -6 93 93 N 6 9 29.13 987 2 3 0.00 0.00
1:33 am 01:33 Cloudy with Light Snow 23 -5 21 -6 93 93 N 7 11 29.13 987 1 2 0.00 0.00
1:48 am 01:48 Cloudy with Snow 23 -5 21 -6 93 93 N 6 9 29.15 987 3 5 0.00 0.00
1:58 am 01:58 Cloudy with Snow 22 -5.5 21 -6.1 96 96 N 7 11 29.15 987 1 1 0.02 0.51
2:03 am 02:03 Cloudy with Snow 23 -5 21 -6 93 93 N 9 15 29.15 987 5 8 0.00 0.00
2:08 am 02:08 Cloudy with Snow 23 -5 21 -6 93 93 N 10 17 29.14 987 5 8 0.00 0.00
2:18 am 02:18 Cloudy with Snow 21 -6 21 -6 100 100 N 12 19 29.14 987 5 8 0.00 0.00
2:53 am 02:53 Cloudy with Light Snow 21 -6 19 -7 93 93 NW 10 17 29.13 986 7 11 0.00 0.00
2:58 am 02:58 Cloudy with Light Snow 22 -5.6 20 -6.7 92 92 NNW 9 15 29.14 987 7 11 0.01 0.25
3:08 am 03:08 Cloudy with Snow 21 -6 19 -7 93 93 N 16 26 29.14 987 3 5 0.00 0.00
3:43 am 03:43 Cloudy with Snow 21 -6 19 -7 93 93 NNW 17 28 29.12 986 1 1 0.00 0.00
3:58 am 03:58 Cloudy with Snow 20 -6.4 18 -7.6 91 91 NW 17 28 29.11 986 1 1 0.01 0.25
4:08 am 04:08 Cloudy with Snow 21 -6 18 -8 86 86 NW 18 30 29.10 986 1 1 0.00 0.00
4:23 am 04:23 Windy with Snow Likely 21 -6 18 -8 86 86 NNW 20 31 29.11 986 1 2 0.00 0.00
4:38 am 04:38 Cloudy with Light Snow 21 -6 18 -8 86 86 NNW 18 30 29.10 986 7 11 0.00 0.00
4:58 am 04:58 Cloudy with Light Snow 20 -6.4 18 -7.6 91 91 NNW 17 28 29.10 986 1 2 0.00 0.00
5:23 am 05:23 Cloudy with Light Snow 21 -6 18 -8 86 86 NNW 17 28 29.10 986 2 2 0.00 0.00
5:53 am 05:53 Windy with Snow Likely 21 -6 18 -8 86 86 NNW 20 31 29.11 986 1 1 0.00 0.00
5:58 am 05:58 Cloudy with Light Snow 20 -6.5 18 -7.9 90 90 NNW 17 28 29.11 986 1 1 0.00 0.00
6:23 am 06:23 Cloudy with Light Snow 19 -7 18 -8 93 93 NNW 18 30 29.12 986 7 11 0.00 0.00
6:54 am 06:54 Cloudy with Light Snow 19 -7 16 -9 86 86 NNW 18 30 29.17 988 7 11 0.00 0.00
6:58 am 06:58 Cloudy with Light Snow 19 -7.2 16 -9 87 87 NNW 18 30 29.18 988 7 11 0.01 0.25
7:03 am 07:03 Cloudy with Light Snow 19 -7 16 -9 86 86 NNW 15 24 29.18 988 1 2 0.00 0.00
7:18 am 07:18 Windy with Snow Likely 19 -7 16 -9 86 86 NNW 20 31 29.18 988 3 5 0.00 0.00
7:58 am 07:58 Cloudy with Snow 18 -7.6 15 -9.4 87 87 NNW 22 35 29.20 989 1 1 0.00 0.00
8:43 am 08:43 Windy with Snow Likely 18 -8 14 -10 86 86 N 23 37 29.25 991 3 5 0.00 0.00
8:58 am 08:58 Windy with Snow Likely 19 -7.5 13 -10.6 79 79 NNW 23 37 29.23 990 4 6 0.00 0.00
9:03 am 09:03 Windy with Snow Likely 19 -7 12 -11 73 73 NNW 20 31 29.24 990 5 8 0.00 0.00
9:38 am 09:38 Mostly Cloudy with Light Snow 19 -7 12 -11 73 73 NNW 23 37 29.26 991 1 2 0.00 0.00
9:58 am 09:58 Mostly Cloudy with Light Snow 20 -6.9 11 -11.4 71 71 NNW 21 33 29.28 992 4 6 0.00 0.00
10:33 am 10:33 Windy with Snow Showers Likely 19 -7 14 -10 79 79 NNW 20 31 29.31 993 4 6 0.00 0.00
10:58 am 10:58 Cloudy with Light Snow Showers 20 -6.9 14 -10.2 78 78 NNW 18 30 29.31 993 10 16 0.00 0.00
11:06 am 11:06 Cloudy 19 -7 12 -11 73 73 NNW 21 33 29.32 993 10 16 0.00 0.00
11:58 am 11:58 Mostly Cloudy 21 -6.2 13 -10.5 72 72 N 15 24 29.32 993 10 16 0.00 0.00
12:21 pm 12:21 Mostly Cloudy with Light Snow 21 -6 14 -10 74 74 NNW 18 30 29.34 993 10 16 0.00 0.00
12:41 pm 12:41 Mostly Cloudy 21 -6 14 -10 74 74 N 16 26 29.35 994 10 16 0.00 0.00
12:42 pm 12:42 Mostly Cloudy with Light Snow Showers 21 -6 14 -10 74 74 N 18 30 29.35 994 10 16 0.00 0.00
12:58 pm 12:58 Mostly Cloudy with Light Snow Showers 20 -6.4 13 -10.4 74 74 N 17 28 29.36 994 10 16 0.00 0.00
12:59 pm 12:59 Mostly Cloudy 21 -6 14 -10 74 74 NNW 14 22 29.36 994 10 16 0.00 0.00
1:58 pm 13:58 Mostly Cloudy 20 -6.6 15 -9.6 79 79 NNW 12 19 29.41 996 10 16 0.00 0.00
2:58 pm 14:58 Partly Cloudy 20 -6.7 14 -10 78 78 N 12 19 29.45 997 10 16 0.00 0.00
3:58 pm 15:58 Mostly Cloudy 19 -7.3 14 -10 81 81 NNW 13 20 29.52 1000 10 16 0.00 0.00
4:58 pm 16:58 Mostly Cloudy 17 -8.1 11 -11.4 77 77 NNW 13 20 29.57 1001 10 16 0.00 0.00
5:19 pm 17:19 Mostly Cloudy with Light Snow 18 -8 12 -11 79 79 NW 10 17 29.59 1002 10 16 0.00 0.00
5:42 pm 17:42 Mostly Clear 18 -8 12 -11 79 79 NW 14 22 29.60 1002 10 16 0.00 0.00
5:58 pm 17:58 Clear 17 -8.5 11 -11.7 78 78 NNW 12 19 29.61 1003 10 16 0.00 0.00
6:58 pm 18:58 Clear 16 -8.9 10 -12.2 77 77 NNW 7 11 29.67 1005 10 16 0.00 0.00
7:58 pm 19:58 Clear 15 -9.5 9 -12.9 77 77 NNW 5 7 29.69 1005 10 16 0.00 0.00
8:43 pm 20:43 Mostly Cloudy 16 -9 9 -13 73 73 Calm 29.72 1007 10 16 0.00 0.00
8:58 pm 20:58 Mostly Cloudy 17 -8.2 12 -10.9 81 81 Calm 29.73 1007 10 16 0.00 0.00
9:23 pm 21:23 Mostly Cloudy 16 -9 9 -13 73 73 WNW 6 9 29.74 1007 10 16 0.00 0.00
9:28 pm 21:28 Partly Cloudy 16 -9 9 -13 73 73 WNW 6 9 29.74 1007 10 16 0.00 0.00
9:58 pm 21:58 Clear 15 -9.7 7 -13.7 73 73 WNW 7 11 29.75 1008 10 16 0.00 0.00
10:58 pm 22:58 Clear 15 -9.3 8 -13.5 72 72 Calm 29.80 1009 10 16 0.00 0.00

Powered by AerisWeather